Lexington Weather

Lexington, Massachusetts, USA

73°F
9/22/2021 1:42pm 
  • Lexington Conditions: Overcast
  • Temperature: 73.0°F / 22.8°CColder 2.4°F than last hour.
  • Dew Point: 68.2°FDecreased 0.5°Fsince last hour.
  • Relative Humidity: 85%Increased 5.0% since last hour.
  • Wind: Wind from SE SE 3 mph, 10-min avg: 4 mph, gust: 12 mph
  • Barometer: 30.10 in Steady
  • Visibility: 10 miles
  • Rain Today: 0.00 in
  •   

Regional Weather Roundup
for Boston / Norton, MA

        
000
ASUS41 KBOX 171404
RWRBOX

REGIONAL WEATHER ROUNDUP
NATIONAL WEATHER SERVICE BOSTON/NORTON MA
1000 AM EDT FRI SEP 17 2021

NOTE:  "FAIR" INDICATES FEW OR NO CLOUDS BELOW 12,000 FEET WITH NO 
SIGNIFICANT WEATHER AND/OR OBSTRUCTIONS TO VISIBILITY.

MAZALL-171500-
EASTERN MASSACHUSETTS
  
CITY           SKY/WX    TMP DP  RH WIND       PRES   REMARKS
BOSTON         CLOUDY    67  62  84 NE12      30.34F                  
BEVERLY        CLOUDY    65  62  90 NE9       30.34F                  
LAWRENCE       CLOUDY    65  62  90 NE9       30.37F                  
BEDFORD        CLOUDY    64  63  96 NE6       30.34F FOG              
BLUE HILL      NOT AVBL                                               
NORWOOD        CLOUDY    67  63  87 NE7       30.34S                  
MARSHFIELD     CLOUDY    66  64  94 VRB5      30.32F                  
PLYMOUTH       LGT RAIN  66  65  96 NE10      30.32S                  
TAUNTON        CLOUDY    67  65  93 VRB5      30.32S FOG              
NEW BEDFORD    CLOUDY    69  67  93 N7        30.30S                  
$$

MAZALL-171500-
CAPE COD AND THE ISLANDS
  
CITY           SKY/WX    TMP DP  RH WIND       PRES   REMARKS
FALMOUTH       CLOUDY    68  68 100 NE9       30.31S FOG              
HYANNIS        PTSUNNY   73  69  87 NE7       30.29S                  
CHATHAM        CLOUDY    71  67  87 NE9       30.32S                  
PROVINCETOWN   CLOUDY    67  66  97 E7        30.33S                  
NANTUCKET      CLOUDY    74  69  85 E10G17    30.28S                  
MARTHAS VNYRD  CLOUDY    71  70  96 NE12      30.29S FOG              
$$
 
MAZALL-171500-
CENTRAL AND WESTERN MASSACHUSETTS
  
CITY           SKY/WX    TMP DP  RH WIND       PRES   REMARKS
WORCESTER      FOG       60  59  96 NE8       30.35F VSB 1/4          
FITCHBURG      CLOUDY    62  59  90 N5        30.36F                  
ORANGE         CLOUDY    65  59  81 N7        30.36S                  
SPRINGFIELD    NOT AVBL                                               
WESTFIELD      CLOUDY    65  61  87 N10       30.33S                  
NORTH ADAMS    CLOUDY    66  59  78 E10       30.34S                  
PITTSFIELD     CLOUDY    63  60  90 NE7       30.33S                  
$$
 
RIZALL-171500-
RHODE ISLAND
  
CITY           SKY/WX    TMP DP  RH WIND       PRES   REMARKS
PROVIDENCE     CLOUDY    68  66  93 NE12      30.32S FOG              
NEWPORT        CLOUDY    69  68  96 NE8       30.30S                  
BLOCK ISLAND   CLOUDY    69  66  90 NE10G17   30.29S                  
SMITHFIELD     FOG       64  64 100 NE9       30.33F VSB 1/2          
WESTERLY       CLOUDY    67  67 100 NE6       30.28S                  
$$
 
CTZALL-171500-
CONNECTICUT
  
CITY           SKY/WX    TMP DP  RH WIND       PRES   REMARKS
BRADLEY INTL   CLOUDY    66  62  87 N8        30.32F                  
HARTFORD       CLOUDY    68  61  78 N7        30.31S                  
BRIDGEPORT     CLOUDY    71  65  81 NE12      30.27F                  
DANBURY        CLOUDY    68  64  87 E7        30.30F                  
GROTON         CLOUDY    72  67  84 NE9       30.27F                  
NEW HAVEN      CLOUDY    71  66  84 N10       30.28S                  
CHESTER        CLOUDY    68  66  94 N7        30.30S                  
MERIDEN        CLOUDY    67  62  84 VRB3      30.30S                  
WILLIMANTIC    CLOUDY    67  64  90 NE9       30.31F                  
OXFORD         CLOUDY    65  63  93 NE12      30.31F                  
$$

MEZ002-015-021-024-NHZ003-005-008-011-012-014-VTZ005-008-171500-
NORTHERN NEW ENGLAND
  
CITY           SKY/WX    TMP DP  RH WIND       PRES   REMARKS
PORTLAND ME    MOSUNNY   65  54  67 E7        30.38F                  
BANGOR ME      MOSUNNY   64  54  69 CALM      30.40F                  
CONCORD NH     CLOUDY    64  57  78 NE6       30.37F                  
MANCHESTER NH  CLOUDY    63  58  83 VRB3      30.35F                  
NASHUA NH      CLOUDY    62  62 100 NW5       30.37S                  
PORTSMOUTH NH  CLOUDY    65  58  78 N3        30.37F                  
JAFFREY NH     CLOUDY    61  60  97 VRB5      30.38S                  
KEENE NH       CLOUDY    64  59  83 NE7       30.36F                  
BURLINGTON VT  PTSUNNY   70  62  76 S8        30.27F                  
MT. WASHINGTON FOG       52  52 100 SW12        N/A  VSB 1/4          
$$

NYZ052-076-171500-
EASTERN NEW YORK
  
CITY           SKY/WX    TMP DP  RH WIND       PRES   REMARKS
ALBANY         CLOUDY    67  63  87 VRB7      30.31S                  
NEW YORK CITY  CLOUDY    71  65  81 NE17      30.26S                  
$$
 
ANZALL-171500-
MARINE OBSERVATIONS
  
STATION/POSITION TIME  TEMP    WIND        PRES    VSBY  WAVE
                       AIR SEA DIR/SP/G                  HT/PER
                 (UTC) (F)     (DEG/KT/KT) (MB)    (MI)  (FT/S)
BOSTON BUOY      1340      66   40/ 14/ 16 1027.4F
BUZZARDS BAY     1300           60/ 17/ 18 1026.8R
NANTUCKET SOUND  1340   71 72   80/ 14/ 16 1025.7R
MASS BAY-STELLWA 1304   64      40/ 14/ 16 1027.2S  1 7/8  2/ 4
ISLE OF SHOALS   1300   62      30/ 16/ 17 1027.6F
S OF BLOCK IS    1326      69                N/A           4/ 7
$$

......................KEY.........................
  SKY/WX - SKY CONDITION/PRESENT WEATHER
  TMP    - TEMPERATURE IN FAHRENHEIT
  DWPT   - DEWPOINT IN FAHRENHEIT
  RH     - RELATIVE HUMIDITY IN PERCENT
  WIND   - DIRECTION AND SPEED IN MPH
  PRES   - MEAN SEA LEVEL PRESSURE IN INCHES OF HG
  WCI    - WIND CHILL INDEX
  VSB    - VISIBILITY IN MILES
  HX     - HEAT INDEX
  TC     - TEMPERATURE IN CELSIUS
  VRB    - VARIABLE WIND DIRECTION
  N/A    - NOT AVAILABLE
  
      

Other recent Regional Weather Roundups

Wed Sep 22, 1:04pm

Wed Sep 22, 12:05pm

Wed Sep 22, 11:04am

Wed Sep 22, 10:04am

Wed Sep 22, 9:04am

Wed Sep 22, 8:04am

Wed Sep 22, 7:04am

Wed Sep 22, 6:04am

Wed Sep 22, 5:04am

Wed Sep 22, 4:04am

Wed Sep 22, 3:04am

Wed Sep 22, 2:04am

Wed Sep 22, 1:04am

Wed Sep 22, 12:04am

Tue Sep 21, 11:04pm

Tue Sep 21, 10:04pm

Tue Sep 21, 9:04pm

Tue Sep 21, 8:04pm

Tue Sep 21, 7:04pm

Tue Sep 21, 6:04pm

Tue Sep 21, 5:04pm

Tue Sep 21, 4:04pm

Tue Sep 21, 3:04pm

Tue Sep 21, 2:04pm

Tue Sep 21, 1:04pm

Tue Sep 21, 12:04pm

Tue Sep 21, 11:04am

Tue Sep 21, 10:04am

Tue Sep 21, 9:04am

Tue Sep 21, 8:04am

Tue Sep 21, 7:04am

Tue Sep 21, 6:04am

Tue Sep 21, 5:04am

Tue Sep 21, 4:04am

Tue Sep 21, 3:04am

Tue Sep 21, 2:04am

Tue Sep 21, 1:04am

Tue Sep 21, 12:04am

Mon Sep 20, 11:04pm

Mon Sep 20, 10:04pm

Mon Sep 20, 9:04pm

Mon Sep 20, 8:04pm

Mon Sep 20, 7:04pm

Mon Sep 20, 6:04pm

Mon Sep 20, 5:04pm

Mon Sep 20, 4:04pm

Mon Sep 20, 3:04pm

Mon Sep 20, 2:04pm

Mon Sep 20, 1:04pm

Mon Sep 20, 12:04pm

Mon Sep 20, 11:04am

Mon Sep 20, 10:04am

Mon Sep 20, 9:04am

Mon Sep 20, 7:04am

Mon Sep 20, 6:04am

Mon Sep 20, 5:04am

Mon Sep 20, 4:04am

Mon Sep 20, 3:04am

Mon Sep 20, 2:04am

Mon Sep 20, 1:04am

Mon Sep 20, 12:04am

Sun Sep 19, 11:04pm

Sun Sep 19, 10:04pm

Sun Sep 19, 9:04pm

Sun Sep 19, 8:04pm

Sun Sep 19, 7:04pm

Sun Sep 19, 6:04pm

Sun Sep 19, 5:04pm

Sun Sep 19, 4:04pm

Sun Sep 19, 3:04pm

Sun Sep 19, 2:05pm

Sun Sep 19, 1:04pm

Sun Sep 19, 12:04pm

Sun Sep 19, 11:04am

Sun Sep 19, 10:05am

Sun Sep 19, 9:04am

Sun Sep 19, 8:04am

Sun Sep 19, 7:04am

Sun Sep 19, 6:04am

Sun Sep 19, 5:04am

Sun Sep 19, 4:04am

Sun Sep 19, 3:04am

Sun Sep 19, 2:04am

Sun Sep 19, 1:04am

Sun Sep 19, 12:04am

Sat Sep 18, 11:05pm

Sat Sep 18, 10:04pm

Sat Sep 18, 9:04pm

Sat Sep 18, 8:04pm

Sat Sep 18, 7:04pm

Sat Sep 18, 6:04pm

Sat Sep 18, 5:04pm

Sat Sep 18, 4:04pm

Sat Sep 18, 3:04pm

Sat Sep 18, 2:04pm

Sat Sep 18, 1:04pm

Sat Sep 18, 12:04pm

Sat Sep 18, 11:04am

Sat Sep 18, 10:04am

Sat Sep 18, 9:04am

Sat Sep 18, 8:04am

Sat Sep 18, 7:04am

Sat Sep 18, 6:04am

Sat Sep 18, 5:04am

Sat Sep 18, 4:04am

Sat Sep 18, 3:04am

Sat Sep 18, 2:04am

Sat Sep 18, 1:04am

Sat Sep 18, 12:04am

Fri Sep 17, 11:04pm

Fri Sep 17, 10:04pm

Fri Sep 17, 9:04pm

Fri Sep 17, 8:04pm

Fri Sep 17, 7:04pm

Fri Sep 17, 6:04pm

Fri Sep 17, 5:04pm

Fri Sep 17, 4:04pm

Fri Sep 17, 3:04pm

Fri Sep 17, 2:04pm

Fri Sep 17, 1:04pm

Fri Sep 17, 12:05pm

Fri Sep 17, 11:04am

Fri Sep 17, 9:04am

Fri Sep 17, 8:04am

Fri Sep 17, 7:04am

Fri Sep 17, 6:04am

Fri Sep 17, 5:04am

Fri Sep 17, 4:04am

Fri Sep 17, 3:04am

Fri Sep 17, 2:04am

Fri Sep 17, 1:04am

Fri Sep 17, 12:04am

Thu Sep 16, 11:04pm

Thu Sep 16, 10:04pm

Thu Sep 16, 9:04pm

Thu Sep 16, 8:04pm

Thu Sep 16, 7:04pm

Thu Sep 16, 6:04pm

Thu Sep 16, 5:04pm

Thu Sep 16, 4:04pm

Thu Sep 16, 3:04pm

Thu Sep 16, 2:04pm

Thu Sep 16, 1:05pm

Thu Sep 16, 12:04pm

Thu Sep 16, 11:05am

Thu Sep 16, 10:05am

Thu Sep 16, 9:04am

Thu Sep 16, 8:04am

Thu Sep 16, 7:04am

Thu Sep 16, 6:04am

Thu Sep 16, 5:04am

Thu Sep 16, 4:04am

Thu Sep 16, 3:04am

Thu Sep 16, 2:04am

Thu Sep 16, 1:04am

Thu Sep 16, 12:04am

Wed Sep 15, 11:04pm

Wed Sep 15, 10:04pm

Wed Sep 15, 9:04pm

Wed Sep 15, 8:04pm

Wed Sep 15, 7:04pm

Wed Sep 15, 6:04pm

Wed Sep 15, 5:05pm

Wed Sep 15, 4:04pm

Wed Sep 15, 3:04pm

Wed Sep 15, 2:04pm

Meta data:

ID: 571f4f31-7608-438d-a55d-5a44bfc15884
Link: https://api.weather.gov/products/571f4f31-7608-438d-a55d-5a44bfc15884